Location: Rounton
(54.4000°N, 1.3500°W)
Time: 13:29:25
(UTC+00:00)

Transit 2A Rocket - Pass Details

Date: 02 December 2021
Orbit: 584 x 918 km, 66.7° (Epoch: 21 January)

Event Time Altitude Azimuth Distance (km) Brightness Sun altitude
Rises 11:12:50 0° 270° (W) 3,460 8.3 13.0°
Reaches altitude 10° 11:15:36 10° 281° (W) 2,559 7.6 13.1°
Maximum altitude 11:20:51 31° 342° (NNW) 1,565 6.2 13.2°
Drops below altitude 10° 11:26:15 10° 43° (NE) 2,622 7.4 13.3°
Sets 11:29:07 0° 54° (NE) 3,557 8.1 13.4°
